Location: Demmingen
(48.6757°N, 10.4375°E)
Time: 21:12:19
(UTC+00:00)

SL-16 R/B - Pass Details

Date: 13 August 2024
Orbit: 842 x 845 km, 71.0° (Epoch: 10 September)

Event Time Altitude Azimuth Distance (km) Brightness Sun altitude
Exits shadow 00:13:50 29° 270° (W) 1,501 3.3 -25.8°
Maximum altitude 00:15:44 37° 309° (NW) 1,291 3.3 -25.7°
Drops below altitude 10° 00:21:00 10° 17° (NNE) 2,476 5.7 -25.5°
Sets 00:23:39 0° 25° (NNE) 3,415 6.7 -25.3°
